Regional Weather Roundup
Issued by NWS Charleston, SC

Current Version | Previous Version | Graphics & Text | Print | Product List | Glossary On
Versions: 1 2 3 4 5 6 7 8 9 10 11 12 13 14 15 16 17 18 19 20 21 22 23 24 25 26 27 28 29 30 31 32 33 34 35 36 37 38 39 40 41 42 43 44 45 46 47 48 49 50
000
ASUS42 KCHS 032127
RWRCHS

REGIONAL WEATHER ROUNDUP
NATIONAL WEATHER SERVICE CHARLESTON SC
500 PM EDT MON AUG 03 2015

NOTE: "FAIR" INDICATES FEW OR NO CLOUDS BELOW 12,000 FEET WITH NO
SIGNIFICANT WEATHER AND/OR OBSTRUCTIONS TO VISIBILITY.

NOT ALL STATIONS ARE QUALITY CONTROLLED BY THE NATIONAL
WEATHER SERVICE. USE DATA WITH CAUTION...ESPECIALLY
DEWPOINT OBSERVATIONS.

SCZ027-030-031-034>040-042>050-032200-
...SOUTHEAST SOUTH CAROLINA...

CITY           SKY/WX    TMP DP  RH WIND       PRES   REMARKS
N CHARLESTON   LGT RAIN  81  74  79 CALM      29.92F
WATERFRONT PRK   N/A     83  76  79 S7        29.90S HX  91
MOUNT PLEASANT LGT RAIN  82  77  83 CALM      29.93F HX  91
JOHNS ISLAND   FAIR      82  73  74 SE6       29.92F
PINOPOLIS      NOT AVBL
MONCKS CORNER  FAIR      84  72  65 CALM      29.93S
SUMMERVILLE    CLOUDY    82  73  74 CALM      29.94S
BEAUFORT MCAS  CLOUDY    85  74  69 SE3       29.90F HX  92
BEAUFORT ARPT  MOCLDY    84  73  70 SE8       29.90S HAZE    HX  91
HILTON HEAD IS PTSUNNY   84  75  74 SE5       29.91S HX  92
WALTERBORO     NOT AVBL
ALLENDALE      NOT AVBL

...SOUTHERN MIDLANDS AND PEE DEE...

CITY           SKY/WX    TMP DP  RH WIND       PRES   REMARKS
GEORGETOWN     NOT AVBL
KINGSTREE      NOT AVBL
ORANGEBURG     CLOUDY    81  72  74 S12       29.93F
BARNWELL       FAIR      84  75  74 SE12      29.93R HX  92
AIKEN          NOT AVBL
MANNING        NOT AVBL
COLUMBIA       MOSUNNY   94  65  38 E15       29.89S HX  96
SUMTER         MOSUNNY   89  70  52 SE14      29.91S HX  94
FLORENCE       PTSUNNY   86  72  62 S15G23    29.93S HX  92
MYRTLE BEACH   PTSUNNY   81  72  74 VRB6      29.97R
N MYRTLE BEACH HVY RAIN  79  75  87 CALM      29.95F FOG

$$

GAZ063-065-086>088-099>101-113>116-118-119-134>141-150-032200-
...SOUTHEAST GEORGIA...

CITY           SKY/WX    TMP DP  RH WIND       PRES   REMARKS
SAVANNAH ARPT  CLOUDY    82  73  74 SE9       29.88F
HUNTER AAF     CLOUDY    81  77  89 E9        29.86S
FORT STEWART   PTSUNNY   84  73  70 SE6       29.85R THUNDER HX  91
STATESBORO     CLOUDY    82  78  88 NE5       29.90S THUNDER HX  90
SYLVANIA       TSTM      79  78  97 E3        29.92S
CLAXTON        NOT AVBL

...CSRA...CENTRAL AND FAR SOUTHEAST GEORGIA...

CITY           SKY/WX    TMP DP  RH WIND       PRES   REMARKS
THOMSON        SUNNY     94  70  45 N7        29.93S HX 101
AUGUSTA-BUSH   PTSUNNY   87  75  67 SE10G24   29.88R HX  96
AUGUSTA-DANIEL MOSUNNY   92  71  50 SE12      29.89S HX  98
SWAINSBORO     MOCLDY    86  77  74 E8        29.90S HX  97
VIDALIA        PTSUNNY   86  77  74 E10       29.88S HX  97
EASTMAN        FAIR      92  74  54 N5        29.89F HX 102
HAZLEHURST     FAIR      88  77  70 CALM      29.86S HX 100
ALMA           SUNNY     89  75  63 VRB5      29.86F HX  99
WAYCROSS       CLOUDY    89  80  74 N7        29.86S HX 105
JESUP          CLOUDY    88  79  74 CALM      29.86S HX 102
BAXLEY         PTSUNNY   86  77  74 E10       29.86S HX  97
BRUNSWICK      CLOUDY    84  75  74 W5        29.86R HX  92
SAINT SIMONS   PTSUNNY   84  75  74 SW8       29.85F HX  92

$$

SCZ027-028-034-036>038-045-046-048>050-GAZ119-141-032200-
...LAKE AND SUPPLEMENTAL COASTAL OBSERVATIONS...

STATION/POSITION TIME  TEMP    WIND        PRES    WAVE   SWELL
                       AIR SEA DIR/SP/G            HT/PER HT/PER/DIR
                 (UTC) (F)     (DEG/KT/KT) (MB)    (FT/S) (FT/S/D)
UPR LAKE MARION  NOT AVBL
WINYAH BAY       2045   84     200/  8     1013.0S
LAKE MURRAY      2100   90     140/  8/ 13 1011.5R
ACE BASIN NERRS  2045   82                   N/A
FORT PULASKI     2100   81 85  140/  8/ 11 1012.5S
SAPELO ISLAND    2100   87      90/  2     1011.0S

$$

ANZ835-935-AMZ111-154-330-350-352-354-370-450-454-472-032200-
...C-MAN AND BUOY OBSERVATIONS...

STATION/POSITION TIME  TEMP    WIND        PRES    WAVE   SWELL
                       AIR SEA DIR/SP/G            HT/PER HT/PER/DIR
                 (UTC) (F)     (DEG/KT/KT) (MB)    (FT/S) (FT/S/D)
BUOY 41004       2050   84 83  160/ 10/ 12 1013.7R   5/ 6   5/ 6
BUOY 41008       2050   78 83  190/ 14/ 16 1011.5F   5/ 7   3/150/ 7
FOLLY BEACH CMAN 2100   83     160/ 10/ 11 1013.2F
CAPERS NEARSHORE 2008   83     200/  8/ 10 1014.1R
FRIPP NEARSHORE  2000   84     170/ 12/ 16 1012.4F


STATION/POSITION TIME  TEMP    WIND        PRES    WAVE   SWELL
                       AIR SEA DIR/SP/G            HT/PER HT/PER/DIR
                 (UTC) (F)     (DEG/KT/KT) (MB)    (FT/S) (FT/S/D)
5E ST. MARYS GA  2021      82                N/A     4/ 6   2/110/12
FRYING PAN BUOY  2050   78 82  190/ 10/ 12 1015.6S   5/ 6   5/170/ 6
BUOY 41025       2050   77 84  190/ 14/ 17 1015.3F   4/ 6   2/150/11
CAPE LOOKOUT NC  2100   75     190/ 14/ 16 1015.1R
BUOY 41002       2050   83 81  190/ 12/ 14 1016.9F   5/ 6   3/220/ 6
BUOY 41010       2020   84 84  190/ 19/ 21 1014.9F
ST AUGUSTINE FL  2100   77 79  200/ 12/ 16 1012.9R


$$



USA.gov is the U.S. government's official web portal to all federal, state and local government web resources and services.